Cloud_Cover
100 100 90 96 100 100 99 100 98 57 6 85 91 24 0 0 0 0 0 0 0 0 0 0 0 0 0 92 5 5 100 99 91 86 100 87 78 86 96 31 88 81 14 5 0
53 17 28 70 46 43 74 23 14 88 84 24 4 5 0 1 0 0 0 0 0 0 0 0 0 0 43 73 30 80 100 99 54 64 91 99 100 100 54 83 78 97 5 15 11
29 23 31 49 61 51 100 100 100 10 67 67 1 1 0 2 0 0 0 0 0 0 0 0 0 0 20 36 35 83 96 100 71 97 73 100 87 85 89 44 92 9 5 5 88
17 14 16 22 38 69 100 100 100 74 2 22 5 7 3 0 0 0 0 0 0 0 0 0 0 2 5 94 32 100 4 28 40 78 94 98 100 85 49 100 74 16 58 24 10
98 34 15 22 46 44 87 100 100 97 16 0 8 9 16 0 0 0 0 0 0 0 0 0 0 4 50 85 87 89 4 8 26 98 97 75 96 99 98 97 53 61 69 66 99
100 69 18 1 23 21 30 97 100 44 10 1 0 36 0 0 0 0 0 0 0 0 0 0 2 0 1 66 99 7 2 9 61 48 99 98 35 100 100 92 72 62 98 100 100
100 98 30 14 22 14 25 14 20 25 0 0 3 1 0 0 0 0 0 0 0 0 0 0 0 0 5 53 3 0 8 39 54 88 5 100 100 100 94 100 100 79 100 100 100
100 100 41 7 2 4 22 24 24 26 0 0 5 0 0 0 0 0 0 0 0 0 0 0 0 0 90 50 45 82 100 100 15 4 100 100 100 100 100 51 100 100 88 100 100
100 100 54 10 0 0 0 0 2 1 0 6 8 0 0 0 0 0 0 0 0 0 0 0 0 0 5 22 50 83 96 88 11 83 100 100 100 100 97 82 74 100 78 60 98
100 100 42 0 0 0 0 11 0 44 20 0 0 0 0 0 0 0 0 0 0 0 0 0 0 2 5 14 100 100 98 85 86 18 85 100 100 100 100 100 99 66 57 72 83
100 37 1 0 0 0 49 0 0 0 0 0 0 0 0 0 0 0 0 0 0 0 0 0 0 4 5 81 1 100 100 100 59 9 96 94 100 100 100 100 100 91 94 28 100
34 0 0 0 0 3 12 0 0 0 0 0 0 0 0 1 0 5 2 3 0 0 0 0 0 1 92 95 41 90 35 17 11 6 34 69 100 100 100 100 100 82 98 73 96
0 0 0 0 8 29 0 0 0 0 2 1 4 2 0 4 4 4 2 0 0 0 0 0 0 0 1 1 26 93 70 53 72 6 5 29 100 100 96 100 100 100 100 97 100
38 1 0 51 9 4 5 0 2 3 5 5 4 5 5 4 0 3 0 0 0 0 0 0 0 0 0 0 2 85 54 17 1 5 100 34 100 100 64 60 100 100 100 100 100
5 5 5 43 1 5 5 5 5 5 35 5 5 5 5 5 5 5 1 0 0 0 0 0 0 0 0 0 0 88 71 95 5 5 20 98 99 100 99 30 21 100 100 100 100
0 5 20 5 5 5 5 5 5 5 5 74 5 5 5 5 5 5 5 2 0 0 0 0 0 0 0 0 0 0 8 21 5 5 90 93 61 100 55 100 100 32 26 99 100
5 5 49 5 7 5 5 5 5 5 10 73 8 5 5 5 5 5 5 5 5 0 0 0 0 0 0 0 0 0 5 93 74 79 100 24 22 100 10 95 68 17 6 12 25
5 32 12 35 48 81 44 90 91 40 5 6 25 76 36 5 5 5 5 5 5 5 5 2 0 0 0 0 0 0 5 84 83 100 100 86 4 92 9 58 3 0 0 0 5
19 5 5 30 98 100 100 100 100 100 73 13 22 18 94 89 26 5 5 4 5 5 5 5 18 0 0 0 5 0 5 58 90 60 84 95 99 14 1 3 0 0 0 0 0
20 64 9 11 96 94 81 60 86 100 79 10 4 14 23 73 34 5 5 4 5 5 16 57 94 9 0 0 8 97 42 39 100 94 38 100 64 75 54 5 5 2 0 0 0
84 99 55 99 99 100 100 85 44 57 63 5 0 3 73 96 100 87 20 42 5 66 90 68 60 100 2 0 2 1 23 72 100 99 100 100 100 100 94 30 5 0 0 0 0
18 91 33 96 100 100 100 100 74 15 29 9 3 0 5 26 57 100 100 100 63 100 100 100 99 86 35 4 4 72 66 6 7 2 7 50 100 79 53 1 0 3 0 0 0
54 55 10 5 99 100 100 100 96 56 98 88 68 11 5 5 4 5 100 99 100 31 100 100 100 100 100 51 2 1 30 72 100 100 92 100 80 19 9 0 0 0 0 0 0
5 5 5 5 89 99 100 100 100 61 70 95 100 71 36 48 5 5 6 85 100 53 28 93 100 100 100 91 65 81 2 39 64 100 92 100 94 6 1 0 0 0 0 0 0
5 2 3 5 35 57 5 20 99 100 100 98 99 78 66 39 89 9 5 24 100 96 5 67 100 100 100 94 100 100 49 48 78 33 95 100 92 100 36 0 0 0 0 0 0
5 2 5 0 1 4 0 5 5 5 5 47 11 12 6 36 55 44 34 5 15 100 100 6 100 100 100 100 100 99 64 97 100 100 99 40 79 5 19 2 0 0 0 0 0
5 0 0 0 2 1 4 5 5 5 5 14 21 42 66 88 53 5 74 74 98 8 100 99 100 100 100 100 95 60 72 84 94 90 100 100 90 75 3 0 0 0 0 0 0